Hourly Data Report for October 10, 2015

All times are specified in Local Standard Time (LST). Add 1 hour to adjust for Daylight Saving Time where and when it is observed.

QIKIQTARJUAQ A
NUNAVUT

67°32'48.000" N
64°01'54.000" W
5.50 m
2400577
YVM

Download Data

Hourly Data (October 2015)
Hourly Data Report for October 10, 2015
Temp Definition
°C
Dew Point Temp Definition
°C
Rel Hum Definition
%
Wind Dir Definition
10's deg

Wind Spd Definition
km/h
Visibility Definition
km
Stn Press Definition
kPa
Hmdx Definition


Wind Chill Definition


Weather Definition


TIME
00:00 Legend Double Dagger -4.4 -6.0 89 14 4 16.1 100.46   -6 Snow
01:00 Legend Double Dagger -4.2 -5.8 89   0 16.1 100.47     Snow
02:00 Legend Double Dagger -3.9 -5.3 90   0 16.1 100.48     Snow
03:00 Legend Double Dagger -3.6 -5.0 90 13 4 16.1 100.47   -5 Snow
04:00 Legend Double Dagger -3.5 -4.8 91 10 4 16.1 100.47   -5 Snow
05:00 Legend Double Dagger -3.2 -3.9 95 8 4 9.7 100.49   -5 Snow
06:00 Legend Double Dagger -3.1 -3.7 96   0 1.2 100.49     Snow
07:00 Legend Double Dagger -3.3 -4.0 95   0 4.8 100.48     Snow
08:00 Legend Double Dagger -3.4 -4.2 94   0 11.3 100.46     Snow
09:00 Legend Double Dagger -3.1 -4.2 93 5 4 9.7 100.44   -5 Snow
10:00 Legend Double Dagger -2.6 -3.6 93 4 4 6.4 100.42   -4 Snow
11:00 Legend Double Dagger -2.5 -3.3 94 8 4 2.0 100.42   -4 Snow
12:00 Legend Double Dagger -2.2 -2.8 96   0 2.0 100.42     Snow
13:00 Legend Double Dagger -2.2 -2.9 95   0 1.6 100.41     Snow
14:00 Legend Double Dagger -2.2 -3.0 94 13 4 4.0 100.41   -4 Snow
15:00 Legend Double Dagger -2.4 -3.1 95   0 4.8 100.41     Snow
16:00 Legend Double Dagger -2.6 -3.2 96 20 5 2.8 100.40   -5 Snow
17:00 Legend Double Dagger -3.3 -4.1 94   0 16.1 100.36     Snow
18:00 Legend Double Dagger -4.3 -5.4 92 13 9 16.1 100.35   -8 LegendNANA
19:00 Legend Double Dagger -5.1 -6.4 91 LegendMM 4 16.1 100.36   -7 LegendNANA
20:00 Legend Double Dagger -5.5 -7.0 89 15 4 16.1 100.36   -7 LegendNANA
21:00 Legend Double Dagger -6.2 -7.6 90 15 4 16.1 100.37   -8 LegendNANA
22:00 Legend Double Dagger -6.0 -7.9 87 16 5 16.1 100.40   -8 LegendNANA
23:00 Legend Double Dagger -5.7 -7.7 86 LegendMM 4 16.1 100.41   -8 LegendNANA

Notes on Data Quality.

Legend

  • E = Estimated
  • M = Missing
  • NA = Not Available
  • ‡ = Partner data that is not subject to review by the National Climate Archives
Date modified: